#timestamp,LO_Frequency,Hit,StdDev 
1531526415.8,286046995.5,N
1531526435.6,286046993.9,Y
1531526455.5,286046995.4,P
1531526475.3,286046996.6,N
1531526495.1,286046998.8,N
1531526515.9,286046998.0,N
1531526535.7,286046995.0,Y
1531526555.5,286046996.7,P
1531526575.4,286046997.1,P
1531526595.2,286046997.3,P
1531526615.1,286046999.3,N
1531526616.0,286046999.3,N
1531526635.8,286046999.5,N
1531526655.6,286047001.0,N
1531526675.5,286046998.4,N
1531526695.3,286046997.2,N
1531526715.1,286046997.2,N
1531526735.9,286046996.5,N
1531526755.7,286046997.4,N
1531526775.6,286046996.8,N
1531526795.4,286046996.6,N
1531526815.2,286046996.5,N
1531526835.1,286046997.7,N
1531526836.0,286046997.7,N
1531526855.8,286046999.6,N
1531526875.6,286046997.4,N
1531526895.5,286046996.7,N
1531526915.3,286046997.6,N
1531526935.2,286046997.3,N
1531526955.9,286046997.5,N
1531526975.7,286046996.9,N
1531526995.6,286046998.0,N
1531527015.4,286046999.5,N
1531527035.2,286046996.7,N
1531527055.1,286046997.2,N
1531527056.0,286046997.2,N
1531527075.8,286046996.8,N
1531527095.7,286046999.6,N
1531527115.5,286046998.4,N
1531527135.3,286046996.6,N
1531527155.2,286046999.5,N
1531527175.0,286046998.6,N
1531527175.9,286046998.6,N
1531527195.7,286046999.6,N
1531527215.6,286046998.2,N
1531527235.4,286046998.6,N
1531527255.3,286047000.4,N
1531527275.1,286047002.2,N
1531527276.0,286047002.2,N
1531527295.8,286047000.1,N
1531527315.7,286047000.1,N
1531527335.5,286046998.7,N
1531527355.4,286047001.2,N
1531527375.2,286046997.3,N
1531527395.0,286046999.1,N
1531527395.9,286046999.1,N
1531527415.8,286046998.9,N
1531527435.6,286046998.6,N
1531527455.4,286046999.9,N
1531527475.3,286047001.0,N
1531527495.1,286047000.7,N
1531527515.9,286046998.4,N
1531527535.7,286047001.1,N
1531527555.5,286047002.5,N
1531527575.4,286047001.4,N
1531527595.2,286047002.2,N
1531527615.0,286047001.0,N
1531527615.9,286047001.0,N
1531527635.8,286046999.8,N
1531527655.6,286047002.0,N
1531527675.5,286047000.2,N
1531527695.3,286047000.4,N
1531527715.1,286047011.9,Y
1531527735.9,286046999.7,P
1531527755.7,286047002.1,P
1531527775.5,286047004.2,P
1531527795.4,286047000.3,N
1531527815.2,286047000.9,N
1531527835.1,286047000.5,N
1531527836.0,286047000.5,N
1531527855.8,286047001.1,N
1531527875.6,286046998.1,N
1531527895.5,286047002.6,N
1531527915.3,286047001.4,N
1531527935.1,286047004.2,N
1531527955.9,286047004.1,N
1531527975.7,286047002.2,N
1531527995.6,286047001.0,N
1531528015.4,286046999.9,N
1531528035.2,286047001.3,N
1531528055.1,286047003.8,N
1531528056.0,286047003.8,N
1531528075.8,286047003.5,N
1531528095.7,286047002.9,N
1531528115.5,286047005.7,Y
1531528135.3,286047004.2,P
1531528155.2,286047001.6,N
1531528175.0,286047003.7,P
1531528175.9,286047003.7,Y
1531528195.7,286047002.8,P
1531528215.6,286047002.0,P
1531528235.4,286047002.1,P
1531528255.3,286046999.7,N
1531528275.1,286047000.9,N
1531528276.0,286047000.9,N
1531528295.8,286047000.3,N
1531528315.7,286047002.5,N
1531528335.5,286047002.5,N
1531528355.4,286047002.6,N
1531528375.2,286046999.9,N
1531528395.0,286047001.2,N
1531528395.9,286047001.2,N
1531528415.8,286046998.1,N
1531528435.6,286046999.9,N
1531528455.4,286047000.2,N
1531528475.3,286047000.3,N
1531528495.1,286047000.6,N
1531528515.9,286047000.2,N
1531528535.7,286047000.5,N
1531528555.5,286046999.7,N
1531528575.4,286046999.8,N
1531528595.2,286047002.4,N
1531528615.0,286047000.2,N
1531528615.9,286047000.2,N
1531528635.8,286046999.9,N
1531528655.6,286047001.9,N
1531528675.5,286047002.0,N
1531528695.3,286047002.3,N
1531528715.1,286047002.7,N
1531528735.9,286047002.2,N
1531528755.7,286047000.6,N
1531528775.5,286047000.3,N
1531528795.4,286046998.4,N
1531528815.2,286046998.4,N
1531528835.1,286046998.4,N
1531528836.0,286046998.4,N
1531528855.8,286046998.6,N
1531528875.6,286047000.8,N
1531528895.5,286047011.9,Y
1531528915.3,286046997.4,P
1531528935.2,286046995.3,P
1531528955.9,286046995.9,N
1531528975.7,286046995.9,N
1531528995.6,286046995.2,N
1531529015.4,286046997.2,N
1531529035.2,286046995.4,N
1531529055.1,286046995.5,N
1531529056.0,286046995.5,N
1531529075.8,286046993.5,Y
1531529095.7,286046996.9,P
1531529115.5,286046999.4,N
1531529135.3,286046997.4,N
1531529155.2,286046996.6,N
1531529175.0,286046999.5,N
1531529175.9,286046999.5,N
1531529195.8,286046999.0,N
1531529215.6,286046998.9,N
1531529235.4,286047000.7,N
1531529255.3,286046999.0,N
1531529275.1,286046996.6,N
1531529295.8,286046997.9,N
1531529315.7,286046997.0,N
1531529335.5,286046999.5,N
1531529355.4,286046998.9,N
1531529375.2,286046996.6,N
1531529395.0,286046998.4,N
1531529395.9,286046998.4,N
1531529415.8,286046999.5,N
1531529435.6,286046997.1,N
1531529455.5,286046995.2,Y
1531529475.3,286046997.2,P
1531529495.1,286046997.1,P
1531529515.9,286046996.9,P
1531529535.7,286046999.1,N
1531529555.5,286046996.6,Y
1531529575.4,286047000.2,P
1531529595.2,286046999.8,N
1531529615.1,286047002.4,N
1531529616.0,286047002.4,N
1531529635.8,286047001.5,N
1531529655.6,286047003.7,N
1531529675.5,286047001.9,N
1531529695.3,286047001.8,N
1531529715.1,286047001.9,N
1531529735.9,286047003.1,N
1531529755.7,286047004.2,N
1531529775.6,286047004.1,N
1531529795.4,286047003.4,N
1531529815.2,286047003.6,N
1531529835.1,286047003.1,N
1531529836.0,286047003.1,N
1531529855.8,286047004.5,N
1531529875.7,286047007.2,Y
1531529895.5,286047002.6,P
1531529915.3,286047000.4,P
1531529935.2,286046998.4,N
1531529955.0,286047002.2,N
1531529955.9,286047002.2,N
1531529975.7,286047001.6,N
1531529995.6,286047001.6,N
